{"data":{"norad_id":69451,"intl_designator":"2026-127J","name":"STARLINK-37578","alt_names":[],"object_type":"PAYLOAD","status":"ACTIVE","operator":null,"country":"US","launch_date":"2026-06-08","launch_site_code":"AFETR","launch_vehicle":null,"mission":null,"orbit_class":"UNKNOWN","rcs_meters":null,"size_class":null,"mass_kg":null,"dimensions":null,"purposes":["comms"],"wikipedia_slug":null,"has_3d_model":false,"image_url":null,"decayed_at":null,"tle_current":{"epoch":"2026-09-20T00:45:15.286752Z","epoch_age_seconds":67213,"freshness":"FRESH","line1":"1 69451U 26127J   26263.03142693  .00019426  00000+0  58453-3 0  9999","line2":"2 69451  53.1570 167.6614 0000587  64.4331 295.6732 15.34402580 16126","mean_motion":15.3440258,"eccentricity":5.87e-5,"inclination_deg":53.157,"raan_deg":167.6614,"arg_perigee_deg":64.4331,"mean_anomaly_deg":295.6732,"bstar":0.00058453,"rev_number":1612,"period_min":93.84760028232,"perigee_km":462.29401504217,"apogee_km":463.09712878611,"semimajor_km":6840.8325719141,"source":"CELESTRAK","updated_at":"2026-09-20T09:00:44.200274Z"}}}